When you browse on this site, cookies collect data to enhance your experience and personalize the content and advertising you see.
Visit our Privacy Policy to learn more. By continuing to use the site, you agree to this use of cookies and data.
  • In Deutschland
  • Länderverzeichnis
  • Für 7 Tage
  • Wassertemperatur
  • Satellitenkarten
  • Wetterkarte
  • Widgets
  • user-avatar
    Anmelden

    Stündliche Wetter Neuburg an der Donau

    Heute, 18 Dezember, Dienstag

    Zeit Temperatur Niederschläge Wind Luftdruck Luftfeuchtigkeit
    00:00 +1°C° 0 mm 2 m/S 736 mmHg 95%
    01:00 +1°C° 0 mm 2 m/S 736 mmHg 96%
    02:00 +1°C° 0 mm 2 m/S 736 mmHg 96%
    03:00 +1°C° 0 mm 2 m/S 736 mmHg 96%
    04:00 +2°C° 0 mm 1 m/S 736 mmHg 96%
    05:00 +2°C° 0 mm 1 m/S 736 mmHg 95%
    06:00 +2°C° 0 mm 1 m/S 736 mmHg 95%
    07:00 +1°C° 0 mm 0 m/S 736 mmHg 95%
    08:00 +2°C° 0 mm 1 m/S 736 mmHg 94%
    09:00 +3°C° 0 mm 1 m/S 735 mmHg 93%
    10:00 +3°C° 0 mm 1 m/S 735 mmHg 92%
    11:00 +4°C° 0 mm 1 m/S 735 mmHg 90%
    12:00 +3°C° 0 mm 2 m/S 734 mmHg 88%
    13:00 +4°C° 0 mm 2 m/S 734 mmHg 86%
    14:00 +3°C° 0 mm 2 m/S 733 mmHg 89%
    15:00 +2°C° 0 mm 2 m/S 733 mmHg 92%
    16:00 +1°C° 0 mm 3 m/S 732 mmHg 94%
    17:00 0°C° 0 mm 3 m/S 732 mmHg 94%
    18:00 0°C° 0 mm 3 m/S 732 mmHg 94%
    19:00 -1°C° 0 mm 3 m/S 732 mmHg 94%
    20:00 -1°C° 0 mm 3 m/S 731 mmHg 93%
    21:00 -2°C° 0 mm 3 m/S 731 mmHg 93%
    22:00 -2°C° 0 mm 3 m/S 731 mmHg 92%
    23:00 -2°C° 0 mm 3 m/S 730 mmHg 91%

    Morgen, 19 Dezember, Mittwoch

    Zeit Temperatur Niederschläge Wind Luftdruck Luftfeuchtigkeit
    00:00 -2°C° 0 mm 3 m/S 730 mmHg 89%
    01:00 -2°C° 0 mm 2 m/S 730 mmHg 88%
    02:00 -2°C° 0 mm 2 m/S 729 mmHg 86%
    03:00 -2°C° 0 mm 2 m/S 729 mmHg 84%
    04:00 -2°C° 0 mm 2 m/S 729 mmHg 82%
    05:00 -2°C° 0 mm 2 m/S 729 mmHg 80%
    06:00 -2°C° 0 mm 2 m/S 729 mmHg 78%
    07:00 -1°C° 0 mm 2 m/S 729 mmHg 75%
    08:00 -1°C° 0 mm 2 m/S 729 mmHg 73%
    09:00 +1°C° 0 mm 2 m/S 729 mmHg 71%
    10:00 +2°C° 0 mm 2 m/S 729 mmHg 69%
    11:00 +3°C° 0 mm 1 m/S 729 mmHg 69%
    12:00 +4°C° 0 mm 1 m/S 728 mmHg 70%
    13:00 +5°C° 0 mm 1 m/S 728 mmHg 70%
    14:00 +4°C° 0 mm 1 m/S 728 mmHg 71%
    15:00 +3°C° 0 mm 2 m/S 727 mmHg 73%
    16:00 +3°C° 0 mm 2 m/S 727 mmHg 74%
    17:00 +3°C° 0 mm 1 m/S 727 mmHg 75%
    18:00 +3°C° 0 mm 1 m/S 727 mmHg 77%
    19:00 +2°C° 0 mm 1 m/S 727 mmHg 78%
    20:00 +2°C° 0 mm 1 m/S 727 mmHg 78%
    21:00 +3°C° 0 mm 1 m/S 727 mmHg 79%
    22:00 +3°C° 0 mm 1 m/S 727 mmHg 79%
    23:00 +3°C° 0.3 mm 1 m/S 728 mmHg 82%

    übermorgen, 20 Dezember, Donnerstag

    Zeit Temperatur Niederschläge Wind Luftdruck Luftfeuchtigkeit
    00:00 +3°C° 0.3 mm 1 m/S 728 mmHg 84%
    01:00 +2°C° 0.3 mm 2 m/S 728 mmHg 87%
    02:00 +2°C° 0.3 mm 2 m/S 728 mmHg 88%
    03:00 +2°C° 0.3 mm 2 m/S 728 mmHg 90%
    04:00 +2°C° 0.3 mm 2 m/S 728 mmHg 92%
    05:00 +2°C° 0.3 mm 2 m/S 728 mmHg 93%
    06:00 +2°C° 0.3 mm 2 m/S 728 mmHg 94%
    07:00 +1°C° 0.3 mm 3 m/S 729 mmHg 94%
    08:00 +2°C° 0.1 mm 3 m/S 729 mmHg 93%
    09:00 +2°C° 0.1 mm 3 m/S 729 mmHg 92%
    10:00 +2°C° 0.1 mm 3 m/S 729 mmHg 91%
    11:00 +3°C° 0 mm 4 m/S 729 mmHg 89%
    12:00 +4°C° 0 mm 4 m/S 729 mmHg 87%
    13:00 +4°C° 0 mm 4 m/S 729 mmHg 85%
    14:00 +4°C° 0.2 mm 4 m/S 729 mmHg 86%
    15:00 +3°C° 0.2 mm 3 m/S 730 mmHg 88%
    16:00 +3°C° 0.2 mm 3 m/S 730 mmHg 89%
    17:00 +2°C° 0 mm 3 m/S 730 mmHg 90%
    18:00 +2°C° 0 mm 3 m/S 731 mmHg 90%
    19:00 +1°C° 0 mm 3 m/S 731 mmHg 91%
    20:00 +1°C° 0 mm 3 m/S 731 mmHg 91%
    21:00 +1°C° 0 mm 3 m/S 731 mmHg 91%
    22:00 0°C° 0 mm 4 m/S 732 mmHg 91%
    23:00 0°C° 0 mm 4 m/S 732 mmHg 91%

    21 Dezember, Freitag

    Zeit Temperatur Niederschläge Wind Luftdruck Luftfeuchtigkeit
    00:00 0°C° 0 mm 4 m/S 732 mmHg 91%
    01:00 +1°C° 0 mm 3 m/S 732 mmHg 91%
    02:00 0°C° 0 mm 4 m/S 732 mmHg 90%
    03:00 0°C° 0 mm 4 m/S 731 mmHg 89%
    04:00 0°C° 0 mm 4 m/S 731 mmHg 88%
    05:00 +1°C° 0 mm 4 m/S 731 mmHg 86%
    06:00 +1°C° 0 mm 4 m/S 730 mmHg 84%
    07:00 +1°C° 0 mm 4 m/S 730 mmHg 82%
    08:00 +1°C° 0.6 mm 4 m/S 730 mmHg 80%
    09:00 +1°C° 0.6 mm 4 m/S 729 mmHg 79%
    10:00 +3°C° 0.6 mm 4 m/S 728 mmHg 77%
    11:00 +2°C° 1.2 mm 5 m/S 728 mmHg 79%
    12:00 +3°C° 1.2 mm 6 m/S 727 mmHg 80%
    13:00 +3°C° 1.2 mm 6 m/S 726 mmHg 82%
    14:00 +4°C° 1.3 mm 7 m/S 726 mmHg 82%
    15:00 +5°C° 1.3 mm 8 m/S 726 mmHg 83%
    16:00 +5°C° 1.3 mm 8 m/S 726 mmHg 83%
    17:00 +6°C° 0.3 mm 8 m/S 726 mmHg 83%
    18:00 +6°C° 0.3 mm 8 m/S 726 mmHg 83%
    19:00 +6°C° 0.3 mm 9 m/S 726 mmHg 83%
    20:00 +6°C° 0.3 mm 8 m/S 726 mmHg 83%
    21:00 +7°C° 0.3 mm 8 m/S 726 mmHg 84%
    22:00 +8°C° 0.3 mm 7 m/S 726 mmHg 85%
    23:00 +7°C° 0.2 mm 8 m/S 727 mmHg 84%

    22 Dezember, Samstag

    Zeit Temperatur Niederschläge Wind Luftdruck Luftfeuchtigkeit
    00:00 +7°C° 0.2 mm 8 m/S 727 mmHg 84%
    01:00 +7°C° 0.2 mm 8 m/S 728 mmHg 84%
    02:00 +8°C° 0 mm 7 m/S 728 mmHg 85%
    03:00 +7°C° 0 mm 6 m/S 728 mmHg 86%
    04:00 +7°C° 0 mm 5 m/S 729 mmHg 87%
    05:00 +6°C° 0 mm 5 m/S 729 mmHg 88%
    06:00 +6°C° 0 mm 4 m/S 729 mmHg 89%
    07:00 +6°C° 0 mm 4 m/S 728 mmHg 90%
    08:00 +7°C° 0 mm 5 m/S 728 mmHg 88%
    09:00 +7°C° 0 mm 5 m/S 728 mmHg 86%
    10:00 +8°C° 0 mm 6 m/S 727 mmHg 84%
    11:00 +9°C° 0.6 mm 7 m/S 727 mmHg 83%
    12:00 +9°C° 0.6 mm 7 m/S 727 mmHg 82%
    13:00 +10°C° 0.6 mm 8 m/S 726 mmHg 81%
    14:00 +10°C° 0.4 mm 8 m/S 727 mmHg 81%
    15:00 +10°C° 0.4 mm 8 m/S 727 mmHg 81%
    16:00 +10°C° 0.4 mm 9 m/S 727 mmHg 82%
    17:00 +9°C° 0.3 mm 8 m/S 728 mmHg 82%
    18:00 +9°C° 0.3 mm 7 m/S 728 mmHg 82%
    19:00 +8°C° 0.3 mm 7 m/S 729 mmHg 82%
    20:00 +8°C° 0.1 mm 6 m/S 730 mmHg 82%
    21:00 +7°C° 0.1 mm 6 m/S 730 mmHg 83%
    22:00 +6°C° 0.1 mm 5 m/S 731 mmHg 83%
    23:00 +6°C° 0 mm 5 m/S 731 mmHg 84%

    23 Dezember, Sonntag

    Zeit Temperatur Niederschläge Wind Luftdruck Luftfeuchtigkeit
    00:00 +6°C° 0 mm 5 m/S 731 mmHg 86%
    01:00 +5°C° 0 mm 4 m/S 731 mmHg 87%
    02:00 +5°C° 0 mm 4 m/S 732 mmHg 87%
    03:00 +5°C° 0 mm 4 m/S 732 mmHg 88%
    04:00 +5°C° 0 mm 4 m/S 732 mmHg 88%
    05:00 +5°C° 0 mm 4 m/S 732 mmHg 89%
    06:00 +5°C° 0 mm 3 m/S 732 mmHg 90%
    07:00 +5°C° 0 mm 3 m/S 733 mmHg 90%
    08:00 +5°C° 0 mm 3 m/S 733 mmHg 90%
    09:00 +5°C° 0 mm 3 m/S 733 mmHg 89%
    10:00 +7°C° 0 mm 3 m/S 734 mmHg 88%
    11:00 +6°C° 0 mm 4 m/S 734 mmHg 86%
    12:00 +6°C° 0 mm 4 m/S 734 mmHg 83%
    13:00 +7°C° 0 mm 4 m/S 734 mmHg 80%
    14:00 +7°C° 0 mm 3 m/S 734 mmHg 83%
    15:00 +7°C° 0 mm 3 m/S 734 mmHg 85%
    16:00 +7°C° 0 mm 2 m/S 734 mmHg 87%
    17:00 +6°C° 0 mm 2 m/S 734 mmHg 88%
    18:00 +7°C° 0 mm 1 m/S 735 mmHg 90%
    19:00 +7°C° 0 mm 1 m/S 735 mmHg 92%
    20:00 +7°C° 0.2 mm 1 m/S 735 mmHg 93%
    21:00 +7°C° 0.2 mm 1 m/S 735 mmHg 94%
    22:00 +7°C° 0.2 mm 1 m/S 735 mmHg 95%
    23:00 +7°C° 0.3 mm 1 m/S 735 mmHg 95%
    Mehr zeigen